RH
64 65 69 73 73 74 76 76 75 72 66 59 57 58 60 62 64 65 65 67 70 71 72 73 73 72 69 66 65 67 65 61 59 59 57 53 49 48 47 48 47 44 41 38 35 33 31 29 28 30 35 40 42 43 43 43 43 44 45 50 58 63 61 58 58 56 56 54 54 54 55 56 59 62 64 64 63 63 60 57 55 53 52 53 54
68 70 71 70 69 71 74 76 76 73 68 62 59 60 62 63 63 61 60 62 67 68 69 71 72 71 70 68 67 67 65 63 62 63 61 56 51 49 48 49 48 44 40 38 36 34 33 32 30 31 37 41 43 42 41 40 39 41 45 50 58 63 63 59 57 57 59 59 56 54 53 54 57 60 62 63 64 65 63 59 56 55 54 54 54
69 71 69 67 69 72 75 76 75 73 68 64 62 63 66 65 61 59 59 61 66 69 70 69 68 68 68 68 68 67 65 63 63 64 64 60 55 52 50 50 48 44 41 38 36 36 37 36 33 33 36 39 40 39 38 38 38 40 45 49 54 59 59 59 58 57 59 59 57 54 52 52 52 53 56 61 63 63 63 62 60 58 57 56 56
64 68 68 67 70 72 73 74 74 73 71 68 67 68 68 66 61 61 64 65 64 66 69 68 67 67 67 67 67 67 66 66 65 64 64 62 59 56 53 51 50 47 45 41 38 37 38 36 33 33 34 35 37 37 36 37 39 42 44 45 48 51 52 54 57 57 56 57 57 54 52 51 50 51 55 60 62 62 62 62 62 62 60 58 58
58 63 67 67 68 70 72 74 77 78 76 73 71 71 72 70 67 67 71 71 67 63 64 69 70 69 67 67 66 67 68 69 67 65 63 61 60 58 55 53 52 51 48 45 42 40 39 36 34 35 36 35 36 37 37 38 41 43 43 42 44 47 48 49 54 56 56 54 54 55 55 55 53 52 55 59 62 64 65 66 68 68 65 62 61
49 54 59 62 64 67 72 75 76 76 74 72 71 72 71 72 73 75 77 77 71 65 65 70 71 68 67 69 69 68 68 68 66 65 63 61 60 58 56 54 54 52 49 47 45 44 41 39 37 37 39 39 38 38 39 40 41 41 41 40 43 47 48 49 54 56 53 50 49 52 55 55 54 53 57 64 66 65 65 67 70 71 69 66 64
36 38 43 47 48 50 55 59 61 62 63 63 63 63 64 68 72 75 76 73 70 69 70 74 73 68 67 69 68 68 69 69 69 67 66 62 60 58 56 55 55 52 50 48 47 45 44 41 39 39 39 39 40 39 39 39 39 38 39 39 41 42 44 46 51 54 52 49 49 51 51 51 54 55 59 64 68 67 64 65 68 70 71 71 70
29 29 32 33 32 31 33 36 39 42 45 49 51 51 53 59 67 71 67 61 60 65 70 75 76 73 72 71 68 68 70 72 73 72 70 66 63 61 58 56 56 54 51 49 47 46 45 42 41 40 37 37 38 39 38 38 38 39 39 39 39 40 39 40 43 47 49 49 50 50 48 48 51 54 57 62 64 64 63 63 66 69 69 70 71
29 30 30 29 29 29 28 28 28 29 32 36 39 39 39 42 47 51 49 43 45 56 65 70 73 73 73 73 71 69 70 71 72 73 73 71 69 65 61 59 58 56 53 50 48 47 46 43 41 40 38 36 37 39 39 39 39 39 39 39 39 39 38 37 38 40 43 48 50 48 45 45 47 48 51 55 57 58 58 60 64 66 66 65 67
29 30 30 31 32 31 30 29 28 28 29 30 31 32 30 30 32 33 32 31 35 45 54 59 63 65 67 69 71 72 74 75 73 70 70 70 71 68 64 62 61 59 56 53 49 47 46 44 42 40 39 37 37 39 40 40 41 40 39 39 38 38 38 38 38 38 40 45 50 47 42 42 44 45 46 49 51 53 55 58 60 62 64 64 64
31 31 31 32 33 33 32 32 31 30 31 30 29 30 29 29 29 30 30 30 31 35 40 45 52 58 61 63 65 68 73 77 77 74 71 69 69 69 67 65 64 61 59 55 52 50 49 48 45 42 41 40 40 41 41 41 42 42 42 42 41 41 40 40 40 39 38 40 44 43 39 38 40 42 42 44 46 48 50 53 55 56 58 61 62
33 33 33 33 33 34 34 34 34 34 33 32 31 30 30 30 31 32 32 32 31 31 33 37 42 48 52 53 54 56 61 67 71 74 74 72 71 71 70 68 66 65 62 59 56 54 52 51 49 46 44 43 43 43 44 45 45 45 46 45 45 45 44 44 44 44 44 45 45 43 42 42 42 42 42 44 46 47 49 51 52 52 54 57 60
35 34 34 34 34 35 35 34 35 34 33 32 32 32 31 31 32 33 34 33 32 32 31 33 35 38 41 44 47 49 51 55 59 64 68 71 74 74 74 73 70 69 67 64 62 58 56 54 52 50 50 48 47 46 47 48 50 50 49 50 51 51 50 49 51 51 51 51 50 49 49 49 48 48 49 50 51 52 53 56 57 57 57 59 60
37 36 36 36 35 35 35 35 34 34 33 33 32 32 31 31 31 31 32 33 33 32 31 31 31 32 34 37 40 43 45 46 49 53 57 62 68 73 75 75 73 72 71 70 67 64 60 57 55 54 54 53 53 52 51 52 54 54 53 52 53 54 53 54 56 56 54 54 55 56 57 57 56 55 56 58 59 60 61 62 63 64 64 66 69
37 38 37 37 37 37 36 36 34 34 33 32 31 31 31 30 30 29 28 29 29 30 29 29 29 29 30 31 33 35 36 38 42 46 48 50 55 63 69 72 72 72 73 74 73 70 65 62 60 61 61 60 59 60 58 57 59 58 54 53 54 53 52 54 56 56 56 58 60 62 62 62 62 62 64 65 66 69 70 70 72 75 77 76 77
37 38 38 38 38 37 37 36 35 35 34 33 34 33 31 30 30 29 28 27 27 27 27 27 26 27 27 28 29 29 30 32 35 41 44 46 47 51 57 63 67 70 73 75 76 74 71 69 67 67 69 69 69 69 68 67 67 65 60 59 60 59 58 60 63 63 62 64 67 69 68 68 67 70 74 73 71 73 75 75 78 82 85 84 83
36 37 37 37 37 37 37 37 37 35 35 35 35 34 33 32 32 30 29 28 28 27 27 27 27 27 27 28 28 29 29 30 31 34 37 41 44 46 49 53 58 63 69 72 74 75 76 76 74 73 74 76 76 75 76 76 74 70 66 65 66 66 66 69 72 73 72 73 75 76 76 75 73 74 77 76 74 75 77 77 78 81 85 88 86
34 35 34 34 34 34 35 35 34 34 33 33 33 33 34 34 32 30 28 28 28 28 28 28 29 29 29 30 30 30 30 30 31 31 32 33 37 41 45 49 53 55 58 60 64 70 75 76 76 76 76 79 80 79 82 82 78 73 71 71 71 69 70 72 74 75 76 77 78 78 78 77 75 75 77 76 75 77 77 75 74 76 81 85 85
34 34 33 33 33 32 31 31 30 30 31 31 32 32 33 33 32 30 30 30 30 29 29 29 29 30 31 32 33 32 32 31 31 32 32 31 32 33 37 42 48 51 51 51 52 59 65 66 66 69 72 75 76 78 79 79 77 76 76 75 72 71 72 74 74 74 75 75 73 71 72 73 73 74 76 76 75 73 71 71 74 77 80 81 81
34 34 34 34 34 33 32 30 28 27 28 30 31 31 32 32 31 31 32 32 32 31 31 30 30 31 32 34 35 35 35 34 33 32 33 32 33 33 33 36 40 44 47 46 45 51 58 58 57 60 66 69 69 71 73 73 72 74 74 72 69 70 72 73 73 73 71 69 67 66 67 67 67 69 71 71 71 70 70 74 79 80 78 78 80
34 34 34 34 33 32 31 29 27 26 27 27 28 29 30 31 31 31 32 32 33 32 32 31 31 32 32 33 34 34 35 35 35 35 35 35 36 35 35 35 36 37 39 39 39 44 52 55 54 54 58 59 59 61 64 66 68 70 69 68 67 68 69 70 68 67 65 65 66 65 65 64 66 70 72 70 70 72 76 81 80 77 77 82 87
35 35 35 34 33 32 30 28 28 27 27 27 27 28 29 31 32 32 33 34 33 32 32 32 32 32 32 32 34 34 35 35 35 36 36 36 37 37 36 36 36 36 36 36 37 39 44 48 49 49 49 50 51 53 55 60 66 68 67 65 64 64 64 63 62 62 61 62 62 63 63 64 66 69 69 66 66 70 73 76 75 74 80 87 90
36 37 36 35 33 31 29 28 28 28 27 27 27 28 29 30 32 33 35 35 35 34 34 33 32 32 32 33 35 35 35 35 34 34 35 35 36 38 38 38 38 37 37 37 38 38 39 41 43 44 45 46 47 47 49 53 57 58 57 56 54 53 52 52 53 54 54 54 54 55 57 57 56 56 55 55 57 58 59 59 60 63 68 73 76
37 38 36 35 32 30 29 29 28 28 28 28 28 29 29 30 31 33 35 36 36 35 36 35 34 34 34 36 36 36 36 35 34 34 34 35 36 37 40 41 41 40 40 39 39 38 38 39 40 41 43 43 43 42 42 42 41 41 40 40 40 41 41 42 44 45 44 44 45 45 45 44 44 46 47 48 48 48 48 50 52 53 56 58 61
38 38 36 34 32 31 30 29 28 29 29 30 30 30 30 30 31 33 36 37 37 37 37 37 37 37 38 38 38 38 38 38 37 37 37 38 37 38 39 40 41 41 42 42 40 40 39 38 39 40 39 39 38 37 37 36 35 35 35 34 34 35 37 38 39 39 39 39 39 39 39 40 40 42 43 43 44 45 47 49 50 51 53 55 56
38 37 36 33 32 31 31 30 30 30 31 32 32 31 30 29 30 33 37 38 38 38 39 39 39 39 40 40 41 41 41 42 42 41 41 40 41 40 40 40 41 41 42 42 42 42 41 40 39 39 38 38 38 38 38 38 39 38 38 38 38 38 38 38 39 39 39 40 40 40 41 42 42 43 44 45 46 47 49 50 52 53 54 55 56
38 37 35 34 32 32 31 32 32 33 33 33 33 31 30 30 31 33 36 38 39 40 41 41 42 43 43 44 44 45 45 46 45 45 45 45 45 44 43 42 43 43 43 43 43 43 42 41 40 39 38 39 40 40 41 42 42 42 42 42 42 41 42 42 43 44 45 46 46 47 48 48 49 50 51 52 53 54 55 57 58 59 59 59 61
39 37 35 34 33 32 33 35 35 35 35 33 31 30 30 30 31 33 34 36 39 42 43 45 46 46 47 47 48 48 49 49 48 49 50 50 50 51 51 49 47 47 46 45 44 44 43 42 41 41 41 42 43 43 43 43 43 43 44 45 46 47 48 50 51 51 51 52 52 52 52 53 54 55 56 58 59 61 62 63 63 63 63 63 61
39 37 35 34 34 34 36 36 36 36 34 32 30 30 30 29 29 31 33 34 38 41 44 47 48 49 50 50 51 51 51 52 52 53 54 53 54 57 57 54 51 49 47 47 46 46 45 45 44 44 44 45 45 45 45 46 46 48 50 52 54 55 55 56 55 54 54 53 53 53 53 53 53 54 56 58 60 62 63 64 64 64 64 62 62
39 36 35 34 34 35 37 38 37 36 33 32 31 29 28 28 28 28 29 32 34 39 43 47 50 52 53 54 54 55 55 56 56 56 57 57 58 59 59 57 54 52 51 51 51 50 49 49 49 49 49 49 49 50 51 53 53 55 56 57 58 58 58 58 57 56 56 56 54 53 52 52 52 53 56 60 64 66 66 65 64 64 65 65 68
39 36 35 35 36 36 37 38 38 36 33 31 30 29 29 28 28 28 29 30 32 36 40 45 50 53 55 56 57 57 57 58 58 58 59 59 59 59 59 59 59 58 57 57 56 55 54 54 54 54 53 53 54 55 56 56 58 58 58 58 59 60 60 61 61 60 59 57 56 55 55 56 59 63 66 69 70 71 70 69 69 69 68 66 66
40 37 38 39 39 38 37 38 39 37 33 30 30 30 29 28 29 30 31 32 33 35 38 44 49 52 53 54 56 57 58 59 60 61 62 62 62 61 62 62 62 62 61 60 59 58 56 55 53 52 51 52 53 54 56 58 60 61 62 62 63 64 65 65 64 63 61 60 60 61 62 62 64 66 68 67 67 67 68 67 66 62 60 56 53
43 41 41 42 42 39 38 39 40 38 33 30 28 29 29 29 29 31 33 34 34 33 33 37 43 47 48 48 49 50 51 54 57 60 62 64 65 66 67 66 65 64 63 62 61 59 56 54 52 51 50 50 50 51 53 55 57 59 62 65 66 67 66 64 63 62 61 60 60 59 59 57 58 60 60 59 58 59 58 56 52 48 45 44 41
46 45 44 45 44 42 40 40 40 39 36 32 28 27 28 29 30 32 33 34 33 31 29 31 35 39 40 41 41 42 44 46 48 51 54 58 62 65 67 67 67 68 67 64 61 59 55 52 50 47 46 44 43 42 43 45 47 49 52 54 57 58 58 57 56 55 54 54 52 52 51 50 50 51 50 49 47 46 44 41 38 34 32 32 33
50 50 48 46 46 45 43 41 41 41 39 35 30 27 27 29 30 32 33 33 31 30 28 28 30 34 37 39 40 42 43 44 45 44 45 47 50 53 55 57 59 59 58 56 53 51 48 45 41 37 34 33 32 33 35 36 38 39 39 40 42 43 44 45 45 46 46 46 45 44 43 41 37 36 35 35 34 33 32 31 29 26 24 25 27
53 52 50 48 47 46 45 44 43 43 42 40 35 30 27 27 29 31 33 32 30 28 26 27 29 32 36 39 40 40 40 41 40 39 38 37 38 38 39 42 44 46 46 46 44 42 40 38 36 33 30 29 29 30 31 32 32 32 32 32 32 31 31 32 32 33 34 35 34 33 31 29 27 25 25 25 25 25 24 24 24 23 23 24 27
54 53 51 49 47 47 46 46 46 45 45 45 41 35 30 28 28 31 34 33 32 28 26 27 29 32 35 38 39 38 37 36 35 34 32 31 32 31 32 34 36 37 39 40 40 39 37 36 35 33 30 28 28 29 29 28 28 27 26 25 25 24 24 24 23 23 24 24 24 24 24 23 22 22 21 21 21 21 21 21 21 21 23 25 29
56 54 51 49 48 47 48 49 48 47 49 51 48 41 35 29 28 30 34 35 33 30 28 28 30 34 37 38 38 36 35 34 33 32 32 30 30 30 30 30 30 31 32 34 34 34 33 32 31 30 27 25 25 26 26 26 26 25 24 24 24 24 25 26 24 23 22 24 24 23 23 24 25 25 25 24 23 22 22 22 22 21 21 24 29
58 56 53 51 49 48 49 50 49 48 50 54 53 47 42 35 28 29 34 36 35 33 30 30 31 34 36 38 38 36 34 34 34 33 32 31 30 30 29 29 29 28 28 28 29 29 28 28 29 28 27 26 26 27 28 28 28 29 29 29 27 26 28 30 29 27 26 27 27 27 27 28 29 29 29 27 26 25 24 24 25 24 23 23 24
60 60 57 54 52 51 52 53 51 50 51 54 54 52 49 42 32 27 32 37 37 35 32 30 31 33 35 38 39 38 36 36 35 35 35 34 33 32 31 30 30 29 29 28 29 29 28 28 29 29 29 29 29 29 30 31 32 33 34 33 32 30 29 30 30 30 29 29 29 28 29 30 30 30 29 28 28 27 26 26 28 28 27 25 25
64 63 60 58 55 54 55 54 53 53 54 56 56 56 54 49 38 30 31 36 38 37 34 31 31 32 34 38 41 41 40 39 38 38 38 38 37 37 35 34 34 34 33 33 33 33 33 33 33 33 33 34 34 33 34 35 36 36 37 36 35 32 29 28 29 31 31 31 30 30 30 30 30 30 30 29 29 29 27 26 29 29 28 27 28
67 65 63 61 58 57 58 58 58 58 58 58 59 59 57 53 46 38 33 34 38 38 36 33 31 31 34 39 42 44 44 43 43 42 41 41 40 40 40 39 39 38 37 37 36 36 37 37 37 37 37 37 37 37 37 37 37 36 35 35 34 31 28 28 30 31 30 31 31 31 31 31 31 31 30 29 29 28 27 27 29 29 28 28 29
68 67 65 63 61 60 61 62 62 61 59 58 61 62 60 57 55 49 43 41 41 41 38 34 31 30 33 39 43 46 47 48 48 48 47 45 44 44 44 44 44 43 43 42 40 39 38 38 38 39 39 39 39 39 39 38 37 35 34 34 33 31 30 32 33 32 32 32 33 34 33 33 32 31 31 30 29 28 28 28 28 28 28 29 30
68 67 65 64 64 63 63 63 61 60 59 59 61 62 61 60 60 57 53 52 52 48 43 40 37 34 33 36 41 45 48 49 52 52 51 49 47 47 47 47 47 46 46 44 42 41 39 38 37 38 38 39 40 40 39 38 38 38 38 38 36 34 33 34 33 32 31 33 34 34 34 34 33 33 32 31 30 29 29 28 26 26 28 29 30
67 66 65 65 66 64 62 61 60 59 59 60 61 62 62 63 63 62 60 60 61 58 52 46 43 40 37 36 38 43 47 50 52 54 54 52 50 50 50 49 48 48 47 46 44 42 41 39 38 36 37 39 39 38 38 39 40 40 41 42 40 38 37 37 35 32 31 32 33 34 34 33 34 34 34 33 32 32 31 29 27 26 28 30 31
66 65 66 67 66 64 61 62 61 58 57 59 61 62 64 65 66 65 63 61 63 65 62 54 47 45 44 42 42 42 45 48 50 51 52 52 52 52 52 51 50 49 48 46 45 44 43 42 39 36 35 35 36 36 37 40 40 40 41 42 41 40 40 39 37 33 32 33 35 35 33 31 32 34 34 33 33 32 32 31 30 30 30 31 32
66 66 68 68 66 63 61 61 61 58 56 59 63 64 64 65 67 66 64 61 61 65 65 61 54 48 47 46 43 41 41 43 45 46 48 51 51 51 52 51 51 51 50 49 48 47 47 45 43 38 34 32 32 33 35 37 38 39 39 39 38 38 38 38 37 35 35 38 39 37 33 30 30 32 34 34 34 33 32 32 32 32 32 32 34
68 69 70 71 68 64 62 62 61 58 55 58 63 65 65 66 66 66 64 62 60 61 61 60 56 52 49 47 45 42 41 41 41 41 44 46 46 47 48 50 51 52 51 50 50 49 49 48 45 40 35 32 31 31 32 32 33 34 35 35 34 34 34 35 36 37 39 41 41 39 36 34 33 33 34 34 33 33 32 32 32 32 33 34 36
70 70 72 72 69 66 63 62 60 58 54 56 60 63 65 66 66 65 64 62 61 59 56 54 52 49 48 47 45 42 42 43 42 41 42 43 43 44 47 49 49 49 49 49 48 48 47 46 43 39 35 33 30 29 30 31 31 32 32 33 33 33 34 36 37 39 40 42 42 40 40 40 39 38 37 37 36 34 32 32 33 33 34 36 39
72 72 73 73 70 67 65 63 62 59 57 57 59 62 65 66 66 65 64 63 62 59 55 51 47 45 45 46 45 42 42 45 45 44 44 43 42 43 44 45 45 45 44 45 46 45 44 44 43 40 35 32 29 29 29 29 30 30 31 32 34 35 36 38 39 40 42 42 42 42 44 45 44 42 42 41 39 36 33 32 32 35 37 39 42
74 74 74 74 72 69 65 64 62 61 59 58 60 61 63 65 66 65 65 64 63 59 55 49 45 43 43 45 46 45 46 47 48 48 47 45 43 43 44 44 45 45 44 44 45 45 44 44 44 42 37 32 30 29 28 27 27 27 27 28 31 34 36 38 39 40 41 41 41 42 43 44 45 44 43 41 38 35 33 32 33 35 38 41 44